1596924032,2020-08-09 00:00,66.88,951.99,1023.80,596,18.73,12.47,-87,1
1596924092,2020-08-09 00:01,66.45,951.96,1023.76,596,18.74,12.38,-87,1
1596924152,2020-08-09 00:02,66.73,952.00,1023.80,596,18.73,12.43,-88,1
1596924212,2020-08-09 00:03,65.68,951.99,1023.80,596,18.71,12.17,-87,1
1596924272,2020-08-09 00:04,65.49,951.98,1023.78,596,18.66,12.08,-87,1
1596924332,2020-08-09 00:05,66.21,951.94,1023.75,596,18.60,12.19,-86,1
1596924392,2020-08-09 00:06,66.04,951.96,1023.76,596,18.59,12.14,-87,1
1596924452,2020-08-09 00:07,66.45,951.99,1023.79,596,18.58,12.22,-86,1
1596924513,2020-08-09 00:08,66.69,951.97,1023.78,596,18.57,12.27,-86,1
1596924573,2020-08-09 00:09,66.81,951.93,1023.74,596,18.56,12.29,-87,1
1596924633,2020-08-09 00:10,66.83,951.92,1023.73,596,18.49,12.23,-87,1
1596924693,2020-08-09 00:11,66.84,951.90,1023.71,596,18.50,12.24,-87,1
1596924753,2020-08-09 00:12,66.21,951.93,1023.74,596,18.48,12.08,-86,1
1596924813,2020-08-09 00:13,66.24,951.91,1023.72,596,18.47,12.07,-86,1
1596924873,2020-08-09 00:14,66.79,951.89,1023.70,596,18.46,12.19,-86,1
1596924933,2020-08-09 00:15,66.54,951.90,1023.70,596,18.45,12.12,-87,1
1596924993,2020-08-09 00:16,66.88,951.88,1023.69,596,18.45,12.20,-87,1
1596925053,2020-08-09 00:17,66.21,951.88,1023.68,596,18.46,12.06,-87,1
1596925113,2020-08-09 00:18,66.71,951.88,1023.69,596,18.43,12.14,-86,1
1596925173,2020-08-09 00:19,67.22,951.89,1023.70,596,18.42,12.25,-87,1
1596925233,2020-08-09 00:20,66.45,951.91,1023.72,596,18.41,12.06,-87,1
1596925293,2020-08-09 00:21,65.85,951.95,1023.75,596,18.41,11.93,-87,1
1596925353,2020-08-09 00:22,66.11,951.92,1023.73,596,18.41,11.98,-87,1
1596925413,2020-08-09 00:23,66.20,951.93,1023.74,596,18.39,11.99,-87,1
1596925473,2020-08-09 00:24,66.37,951.95,1023.76,596,18.39,12.03,-87,1
1596925533,2020-08-09 00:25,67.23,951.95,1023.76,596,18.35,12.18,-88,1
1596925593,2020-08-09 00:26,66.55,952.00,1023.81,596,18.33,12.01,-87,1
1596925653,2020-08-09 00:27,67.13,951.98,1023.79,596,18.30,12.11,-87,1
1596925713,2020-08-09 00:28,67.12,951.99,1023.80,596,18.29,12.10,-87,1
1596925773,2020-08-09 00:29,67.35,951.99,1023.80,596,18.28,12.14,-87,1
1596925833,2020-08-09 00:30,67.47,952.00,1023.81,596,18.27,12.16,-88,1
1596925894,2020-08-09 00:31,67.47,951.98,1023.78,596,18.26,12.15,-87,1
1596925954,2020-08-09 00:32,67.69,951.99,1023.79,596,18.25,12.19,-86,1
1596926014,2020-08-09 00:33,67.25,952.00,1023.80,596,18.24,12.08,-87,1
1596926074,2020-08-09 00:34,67.12,952.00,1023.80,596,18.23,12.05,-86,1
1596926134,2020-08-09 00:35,66.77,951.94,1023.75,596,18.20,11.94,-85,1
1596926194,2020-08-09 00:36,67.80,951.96,1023.76,596,18.18,12.15,-87,1
1596926254,2020-08-09 00:37,68.57,951.94,1023.74,596,18.16,12.30,-87,1
1596926314,2020-08-09 00:38,67.78,951.93,1023.73,596,18.14,12.11,-87,1
1596926374,2020-08-09 00:39,67.78,951.91,1023.71,596,18.14,12.11,-87,1
1596926434,2020-08-09 00:40,68.27,951.89,1023.70,596,18.14,12.22,-86,1
1596926494,2020-08-09 00:41,67.25,951.89,1023.70,596,18.13,11.98,-87,1
1596926554,2020-08-09 00:42,66.59,951.88,1023.69,596,18.13,11.83,-86,1
1596926614,2020-08-09 00:43,65.91,951.89,1023.69,596,18.11,11.65,-87,1
1596926674,2020-08-09 00:44,66.12,951.87,1023.67,596,18.10,11.69,-87,1
1596926734,2020-08-09 00:45,66.46,951.88,1023.69,596,18.10,11.77,-87,1
1596926794,2020-08-09 00:46,66.00,951.89,1023.69,596,18.07,11.64,-86,1
1596926854,2020-08-09 00:47,67.30,951.89,1023.69,596,18.03,11.89,-86,1
1596926914,2020-08-09 00:48,67.26,951.89,1023.69,596,18.01,11.87,-87,1
1596926974,2020-08-09 00:49,67.58,951.86,1023.66,596,18.02,11.95,-86,1
1596927034,2020-08-09 00:50,67.53,951.85,1023.66,596,18.01,11.93,-87,1
1596927094,2020-08-09 00:51,66.78,951.85,1023.66,596,17.90,11.65,-87,1
1596927154,2020-08-09 00:52,66.79,951.86,1023.66,596,17.95,11.70,-86,1
1596927214,2020-08-09 00:53,66.97,951.80,1023.61,596,17.95,11.74,-87,1
1596927274,2020-08-09 00:54,67.61,951.83,1023.63,596,17.93,11.87,-87,1
1596927335,2020-08-09 00:55,67.48,951.81,1023.61,596,17.92,11.83,-87,1
1596927395,2020-08-09 00:56,67.06,951.80,1023.61,596,17.87,11.69,-87,1
1596927455,2020-08-09 00:57,67.09,951.78,1023.58,596,17.90,11.72,-87,1
1596927515,2020-08-09 00:58,68.00,951.80,1023.61,596,17.89,11.92,-87,1
1596927575,2020-08-09 00:59,67.18,951.78,1023.58,596,17.89,11.73,-87,1
1596927635,2020-08-09 01:00,67.47,951.78,1023.58,596,17.88,11.79,-86,1
1596927695,2020-08-09 01:01,67.28,951.79,1023.60,596,17.84,11.71,-87,1
1596927755,2020-08-09 01:02,66.76,951.76,1023.57,596,17.87,11.62,-87,1
1596927815,2020-08-09 01:03,67.65,951.76,1023.56,596,17.88,11.83,-86,1
1596927875,2020-08-09 01:04,66.24,951.76,1023.56,596,17.86,11.49,-87,1
1596927935,2020-08-09 01:05,66.62,951.76,1023.56,596,17.85,11.57,-86,1
1596927995,2020-08-09 01:06,66.35,951.77,1023.57,596,17.81,11.47,-86,1
1596928055,2020-08-09 01:07,66.69,951.72,1023.53,596,17.83,11.57,-86,1
1596928115,2020-08-09 01:08,67.08,951.72,1023.53,596,17.76,11.59,-86,1
1596928175,2020-08-09 01:09,67.08,951.75,1023.56,596,17.77,11.60,-87,1
1596928235,2020-08-09 01:10,67.15,951.76,1023.57,596,17.76,11.60,-86,1
1596928295,2020-08-09 01:11,66.97,951.76,1023.56,596,17.75,11.55,-86,1
1596928355,2020-08-09 01:12,67.49,951.77,1023.58,596,17.72,11.64,-87,1
1596928415,2020-08-09 01:13,67.92,951.76,1023.57,596,17.72,11.74,-86,1
1596928475,2020-08-09 01:14,68.03,951.78,1023.59,596,17.68,11.72,-86,1
1596928535,2020-08-09 01:15,68.30,951.76,1023.57,596,17.62,11.73,-87,1
1596928595,2020-08-09 01:16,68.08,951.75,1023.56,596,17.60,11.66,-87,1
1596928655,2020-08-09 01:17,68.24,951.77,1023.57,596,17.59,11.68,-86,1
1596928715,2020-08-09 01:18,68.90,951.78,1023.59,596,17.57,11.81,-86,1
1596928776,2020-08-09 01:19,69.56,951.76,1023.57,596,17.56,11.95,-87,1
1596928836,2020-08-09 01:20,69.08,951.79,1023.60,596,17.56,11.84,-87,1
1596928896,2020-08-09 01:21,68.60,951.76,1023.57,596,17.54,11.72,-86,1
1596928956,2020-08-09 01:22,67.92,951.68,1023.49,596,17.53,11.56,-87,1
1596929016,2020-08-09 01:23,68.02,951.76,1023.56,596,17.52,11.57,-85,1
1596929076,2020-08-09 01:24,67.29,951.79,1023.59,596,17.46,11.35,-87,1
1596929136,2020-08-09 01:25,68.00,951.77,1023.58,596,17.46,11.51,-87,1
1596929196,2020-08-09 01:26,67.71,951.79,1023.60,596,17.42,11.40,-87,1
1596929256,2020-08-09 01:27,68.46,951.76,1023.57,596,17.43,11.58,-87,1
1596929316,2020-08-09 01:28,68.54,951.77,1023.58,596,17.42,11.59,-87,1
1596929376,2020-08-09 01:29,68.74,951.78,1023.58,596,17.42,11.63,-86,1
1596929436,2020-08-09 01:30,68.07,951.79,1023.59,596,17.40,11.47,-87,1
1596929496,2020-08-09 01:31,68.81,951.78,1023.58,596,17.41,11.64,-86,1
1596929556,2020-08-09 01:32,68.84,951.79,1023.59,596,17.41,11.64,-86,1
1596929616,2020-08-09 01:33,68.70,951.77,1023.57,596,17.41,11.61,-87,1
1596929676,2020-08-09 01:34,69.51,951.78,1023.59,596,17.39,11.77,-87,1
1596929736,2020-08-09 01:35,68.89,951.79,1023.59,596,17.38,11.63,-88,1
1596929796,2020-08-09 01:36,68.73,951.76,1023.57,596,17.37,11.58,-87,1
1596929856,2020-08-09 01:37,69.32,951.76,1023.57,596,17.37,11.71,-86,1
1596929916,2020-08-09 01:38,69.32,951.78,1023.59,596,17.35,11.69,-87,1
1596929976,2020-08-09 01:39,69.75,951.78,1023.59,596,17.35,11.79,-88,1
1596930036,2020-08-09 01:40,68.98,951.77,1023.58,596,17.34,11.61,-86,1
1596930096,2020-08-09 01:41,69.08,951.78,1023.59,596,17.35,11.64,-86,1
1596930157,2020-08-09 01:42,68.93,951.80,1023.61,596,17.35,11.61,-88,1
1596930217,2020-08-09 01:43,69.14,951.78,1023.59,596,17.34,11.64,-87,1
1596930277,2020-08-09 01:44,69.17,951.77,1023.58,596,17.33,11.64,-86,1
1596930337,2020-08-09 01:45,69.88,951.77,1023.58,596,17.34,11.80,-88,1
1596930397,2020-08-09 01:46,70.12,951.77,1023.58,596,17.34,11.86,-87,1
1596930457,2020-08-09 01:47,68.94,951.79,1023.60,596,17.33,11.59,-86,1
1596930517,2020-08-09 01:48,69.22,951.78,1023.58,596,17.34,11.66,-86,1
1596930577,2020-08-09 01:49,69.59,951.74,1023.55,596,17.34,11.74,-87,1
1596930637,2020-08-09 01:50,70.22,951.79,1023.59,596,17.33,11.87,-87,1
1596930697,2020-08-09 01:51,70.08,951.76,1023.57,596,17.33,11.84,-88,1
1596930757,2020-08-09 01:52,69.93,951.77,1023.58,596,17.34,11.82,-86,1
1596930817,2020-08-09 01:53,69.93,951.75,1023.56,596,17.33,11.81,-88,1
1596930877,2020-08-09 01:54,69.81,951.77,1023.58,596,17.31,11.76,-87,1
1596930937,2020-08-09 01:55,70.86,951.78,1023.59,596,17.30,11.98,-87,1
1596930997,2020-08-09 01:56,70.28,951.79,1023.59,596,17.28,11.83,-86,1
1596931057,2020-08-09 01:57,71.10,951.79,1023.59,596,17.28,12.01,-86,1
1596931117,2020-08-09 01:58,71.65,951.79,1023.60,596,17.26,12.11,-87,1
1596931177,2020-08-09 01:59,71.01,951.77,1023.58,596,17.20,11.91,-87,1
1596931237,2020-08-09 02:00,71.39,951.76,1023.57,596,17.18,11.97,-87,1
1596931297,2020-08-09 02:01,72.03,951.79,1023.59,596,17.17,12.10,-86,1
1596931357,2020-08-09 02:02,71.42,951.78,1023.59,596,17.17,11.97,-87,1
1596931417,2020-08-09 02:03,71.20,951.78,1023.59,596,17.15,11.91,-87,1
1596931477,2020-08-09 02:04,71.16,951.77,1023.57,596,17.16,11.91,-87,1
1596931537,2020-08-09 02:05,71.35,951.76,1023.57,596,17.15,11.94,-87,1
1596931598,2020-08-09 02:06,71.02,951.79,1023.60,596,17.13,11.85,-87,1
1596931658,2020-08-09 02:07,70.60,951.79,1023.60,596,17.16,11.79,-87,1
1596931718,2020-08-09 02:08,70.22,951.81,1023.62,596,17.14,11.69,-87,1
1596931778,2020-08-09 02:09,70.28,951.76,1023.57,596,17.14,11.70,-87,1
1596931838,2020-08-09 02:10,69.98,951.78,1023.59,596,17.15,11.64,-86,1
1596931898,2020-08-09 02:11,70.44,951.78,1023.58,596,17.16,11.75,-87,1
1596931958,2020-08-09 02:12,70.28,951.77,1023.58,596,17.16,11.72,-87,1
1596932018,2020-08-09 02:13,70.35,951.76,1023.57,596,17.14,11.71,-88,1
1596932078,2020-08-09 02:14,70.73,951.77,1023.58,596,17.11,11.77,-87,1
1596932138,2020-08-09 02:15,70.70,951.75,1023.55,596,17.09,11.74,-87,1
1596932198,2020-08-09 02:16,70.74,951.76,1023.56,596,17.09,11.75,-87,1
1596932258,2020-08-09 02:17,71.24,951.75,1023.56,596,17.10,11.87,-87,1
1596932318,2020-08-09 02:18,71.75,951.77,1023.57,596,17.11,11.98,-87,1
1596932378,2020-08-09 02:19,70.99,951.77,1023.58,596,17.10,11.81,-86,1
1596932438,2020-08-09 02:20,71.16,951.76,1023.57,596,17.06,11.81,-87,1
1596932498,2020-08-09 02:21,70.58,951.74,1023.54,596,17.06,11.69,-87,1
1596932558,2020-08-09 02:22,70.65,951.73,1023.53,596,17.06,11.70,-86,1
1596932618,2020-08-09 02:23,71.04,951.76,1023.57,596,17.03,11.76,-86,1
1596932678,2020-08-09 02:24,71.05,951.75,1023.55,596,17.04,11.77,-87,1
1596932738,2020-08-09 02:25,70.99,951.74,1023.55,596,17.04,11.76,-87,1
1596932798,2020-08-09 02:26,70.92,951.73,1023.53,596,17.05,11.75,-86,1
1596932858,2020-08-09 02:27,70.26,951.72,1023.53,596,17.02,11.58,-87,1
1596932918,2020-08-09 02:28,70.58,951.72,1023.53,596,17.06,11.69,-87,1
1596932978,2020-08-09 02:29,70.07,951.71,1023.51,596,17.05,11.57,-87,1
1596933039,2020-08-09 02:30,70.17,951.70,1023.51,596,17.06,11.60,-86,1
1596933099,2020-08-09 02:31,69.61,951.71,1023.52,596,17.04,11.46,-86,1
1596933159,2020-08-09 02:32,69.45,951.70,1023.51,596,17.03,11.41,-87,1
1596933219,2020-08-09 02:33,70.03,951.71,1023.52,596,17.01,11.52,-86,1
1596933279,2020-08-09 02:34,70.06,951.71,1023.52,596,17.00,11.52,-87,1
1596933339,2020-08-09 02:35,69.32,951.68,1023.49,596,16.99,11.35,-86,1
1596933399,2020-08-09 02:36,69.71,951.70,1023.51,596,17.00,11.44,-87,1
1596933459,2020-08-09 02:37,69.67,951.71,1023.52,596,16.99,11.42,-87,1
1596933519,2020-08-09 02:38,70.16,951.68,1023.48,596,16.99,11.53,-87,1
1596933579,2020-08-09 02:39,70.79,951.69,1023.49,596,16.97,11.64,-87,1
1596933639,2020-08-09 02:40,70.75,951.68,1023.48,596,16.95,11.62,-86,1
1596933699,2020-08-09 02:41,71.02,951.69,1023.49,596,16.95,11.67,-88,1
1596933759,2020-08-09 02:42,71.06,951.70,1023.51,596,16.90,11.64,-87,1
1596933819,2020-08-09 02:43,71.06,951.65,1023.46,596,16.85,11.59,-87,1
1596933879,2020-08-09 02:44,71.70,951.65,1023.46,596,16.83,11.70,-87,1
1596933939,2020-08-09 02:45,71.82,951.65,1023.45,596,16.83,11.73,-87,1
1596933999,2020-08-09 02:46,71.29,951.65,1023.45,596,16.82,11.61,-88,1
1596934059,2020-08-09 02:47,71.29,951.62,1023.43,596,16.81,11.60,-87,1
1596934119,2020-08-09 02:48,71.23,951.61,1023.42,596,16.82,11.60,-87,1
1596934179,2020-08-09 02:49,71.01,951.58,1023.39,596,16.82,11.55,-87,1
1596934239,2020-08-09 02:50,71.74,951.59,1023.39,596,16.83,11.71,-86,1
1596934299,2020-08-09 02:51,70.78,951.59,1023.39,596,16.82,11.50,-87,1
1596934359,2020-08-09 02:52,70.96,951.59,1023.40,596,16.80,11.52,-87,1
1596934420,2020-08-09 02:53,71.76,951.60,1023.41,596,16.83,11.72,-87,1
1596934480,2020-08-09 02:54,71.36,951.59,1023.40,596,16.81,11.61,-86,1
1596934540,2020-08-09 02:55,71.09,951.58,1023.39,596,16.82,11.57,-88,1
1596934600,2020-08-09 02:56,71.27,951.59,1023.39,596,16.83,11.61,-87,1
1596934660,2020-08-09 02:57,70.76,951.57,1023.38,596,16.83,11.51,-88,1
1596934720,2020-08-09 02:58,70.81,951.56,1023.37,596,16.84,11.52,-87,1
1596934780,2020-08-09 02:59,70.84,951.54,1023.35,596,16.84,11.53,-87,1
1596934840,2020-08-09 03:00,70.42,951.57,1023.38,596,16.82,11.42,-86,1
1596934900,2020-08-09 03:01,70.45,951.56,1023.37,596,16.79,11.40,-87,1
1596934960,2020-08-09 03:02,71.26,951.58,1023.39,596,16.76,11.54,-87,1
1596935020,2020-08-09 03:03,71.48,951.57,1023.38,596,16.76,11.59,-87,1
1596935080,2020-08-09 03:04,70.98,951.59,1023.40,596,16.74,11.47,-87,1
1596935140,2020-08-09 03:05,71.40,951.58,1023.39,596,16.73,11.55,-87,1
1596935200,2020-08-09 03:06,71.13,951.56,1023.37,596,16.73,11.49,-87,1
1596935260,2020-08-09 03:07,71.40,951.57,1023.38,596,16.70,11.52,-87,1
1596935320,2020-08-09 03:08,71.73,951.57,1023.38,596,16.73,11.62,-87,1
1596935380,2020-08-09 03:09,71.31,951.56,1023.37,596,16.72,11.52,-87,1
1596935440,2020-08-09 03:10,70.66,951.58,1023.38,596,16.72,11.38,-86,1
1596935500,2020-08-09 03:11,70.83,951.55,1023.36,596,16.72,11.41,-87,1
1596935560,2020-08-09 03:12,70.86,951.56,1023.37,596,16.72,11.42,-88,1
1596935620,2020-08-09 03:13,71.02,951.56,1023.37,596,16.73,11.46,-88,1
1596935680,2020-08-09 03:14,70.77,951.58,1023.39,596,16.73,11.41,-88,1
1596935740,2020-08-09 03:15,70.22,951.57,1023.37,596,16.72,11.28,-87,1
1596935800,2020-08-09 03:16,70.45,951.57,1023.38,596,16.70,11.31,-87,1
1596935861,2020-08-09 03:17,70.56,951.57,1023.38,596,16.71,11.35,-87,1
1596935921,2020-08-09 03:18,70.84,951.56,1023.37,596,16.70,11.40,-87,1
1596935981,2020-08-09 03:19,70.13,951.55,1023.35,596,16.68,11.23,-87,1
1596936041,2020-08-09 03:20,70.31,951.59,1023.40,596,16.69,11.27,-87,1
1596936101,2020-08-09 03:21,70.50,951.58,1023.38,596,16.68,11.31,-88,1
1596936161,2020-08-09 03:22,70.33,951.59,1023.39,596,16.68,11.27,-87,1
1596936221,2020-08-09 03:23,70.49,951.55,1023.36,596,16.70,11.32,-86,1
1596936281,2020-08-09 03:24,70.30,951.58,1023.39,596,16.69,11.27,-87,1
1596936341,2020-08-09 03:25,70.31,951.58,1023.39,596,16.71,11.29,-88,1
1596936401,2020-08-09 03:26,70.27,951.60,1023.40,596,16.70,11.28,-87,1
1596936461,2020-08-09 03:27,69.78,951.62,1023.42,596,16.69,11.16,-87,1
1596936521,2020-08-09 03:28,70.27,951.59,1023.39,596,16.71,11.29,-87,1
1596936581,2020-08-09 03:29,70.38,951.61,1023.42,596,16.71,11.31,-87,1
1596936641,2020-08-09 03:30,70.22,951.60,1023.41,596,16.71,11.27,-88,1
1596936701,2020-08-09 03:31,70.26,951.59,1023.40,596,16.71,11.28,-88,1
1596936761,2020-08-09 03:32,70.85,951.60,1023.41,596,16.62,11.32,-88,1
1596936821,2020-08-09 03:33,70.91,951.58,1023.39,596,16.64,11.35,-87,1
1596936881,2020-08-09 03:34,70.93,951.60,1023.41,596,16.64,11.36,-86,1
1596936941,2020-08-09 03:35,71.44,951.55,1023.36,596,16.62,11.45,-86,1
1596937001,2020-08-09 03:36,71.84,951.57,1023.38,596,16.62,11.53,-87,1
1596937061,2020-08-09 03:37,72.34,951.57,1023.38,596,16.62,11.64,-87,1
1596937121,2020-08-09 03:38,71.85,951.56,1023.37,596,16.61,11.52,-87,1
1596937181,2020-08-09 03:39,71.52,951.58,1023.38,596,16.61,11.46,-87,1
1596937242,2020-08-09 03:40,72.39,951.57,1023.38,596,16.62,11.65,-86,1
1596937302,2020-08-09 03:41,71.99,951.55,1023.36,596,16.62,11.56,-86,1
1596937362,2020-08-09 03:42,71.73,951.56,1023.36,596,16.60,11.49,-86,1
1596937422,2020-08-09 03:43,72.29,951.54,1023.35,596,16.60,11.61,-87,1
1596937482,2020-08-09 03:44,72.30,951.52,1023.33,596,16.60,11.61,-87,1
1596937542,2020-08-09 03:45,71.94,951.53,1023.34,596,16.60,11.53,-87,1
1596937602,2020-08-09 03:46,73.08,951.54,1023.35,596,16.57,11.74,-87,1
1596937662,2020-08-09 03:47,72.74,951.55,1023.36,596,16.59,11.69,-87,1
1596937722,2020-08-09 03:48,72.71,951.52,1023.32,596,16.59,11.68,-87,1
1596937782,2020-08-09 03:49,72.55,951.53,1023.33,596,16.59,11.65,-87,1
1596937842,2020-08-09 03:50,72.67,951.50,1023.31,596,16.57,11.66,-87,1
1596937902,2020-08-09 03:51,72.82,951.53,1023.34,596,16.56,11.68,-87,1
1596937962,2020-08-09 03:52,72.83,951.54,1023.34,596,16.52,11.64,-88,1
1596938022,2020-08-09 03:53,73.18,951.52,1023.33,596,16.54,11.73,-86,1
1596938082,2020-08-09 03:54,73.05,951.53,1023.34,596,16.51,11.68,-86,1
1596938142,2020-08-09 03:55,73.34,951.52,1023.33,596,16.50,11.73,-87,1
1596938202,2020-08-09 03:56,73.48,951.52,1023.32,596,16.48,11.74,-87,1
1596938262,2020-08-09 03:57,73.37,951.54,1023.35,596,16.46,11.70,-87,1
1596938322,2020-08-09 03:58,73.52,951.54,1023.35,596,16.43,11.70,-87,1
1596938382,2020-08-09 03:59,73.06,951.55,1023.36,596,16.41,11.58,-86,1
1596938442,2020-08-09 04:00,73.32,951.53,1023.33,596,16.41,11.64,-87,1
1596938502,2020-08-09 04:01,73.91,951.53,1023.34,596,16.38,11.73,-86,1
1596938562,2020-08-09 04:02,74.20,951.52,1023.32,596,16.38,11.79,-88,1
1596938622,2020-08-09 04:03,73.44,951.55,1023.36,596,16.34,11.59,-87,1
1596938682,2020-08-09 04:04,74.09,951.52,1023.32,596,16.34,11.73,-87,1
1596938743,2020-08-09 04:05,73.48,951.53,1023.34,596,16.32,11.58,-86,1
1596938803,2020-08-09 04:06,73.67,951.52,1023.32,596,16.31,11.62,-87,1
1596938863,2020-08-09 04:07,73.62,951.53,1023.34,596,16.29,11.58,-88,1
1596938923,2020-08-09 04:08,74.22,951.53,1023.34,596,16.30,11.72,-88,1
1596938983,2020-08-09 04:09,73.78,951.52,1023.33,596,16.29,11.62,-88,1
1596939043,2020-08-09 04:10,73.70,951.54,1023.35,596,16.28,11.59,-87,1
1596939103,2020-08-09 04:11,73.73,951.51,1023.32,596,16.26,11.58,-87,1
1596939163,2020-08-09 04:12,73.43,951.54,1023.35,596,16.27,11.53,-87,1
1596939223,2020-08-09 04:13,73.31,951.55,1023.36,596,16.26,11.49,-86,1
1596939283,2020-08-09 04:14,73.41,951.55,1023.35,596,16.26,11.51,-86,1
1596939343,2020-08-09 04:15,73.34,951.54,1023.34,596,16.27,11.51,-85,1
1596939403,2020-08-09 04:16,73.81,951.53,1023.34,596,16.28,11.61,-87,1
1596939463,2020-08-09 04:17,73.21,951.53,1023.33,596,16.27,11.48,-88,1
1596939523,2020-08-09 04:18,73.81,951.51,1023.31,596,16.28,11.61,-87,1
1596939583,2020-08-09 04:19,74.02,951.49,1023.30,596,16.29,11.67,-86,1
1596939643,2020-08-09 04:20,73.73,951.50,1023.31,596,16.29,11.61,-87,1
1596939703,2020-08-09 04:21,73.31,951.52,1023.32,596,16.26,11.49,-88,1
1596939763,2020-08-09 04:22,73.03,951.54,1023.35,596,16.26,11.43,-88,1
1596939823,2020-08-09 04:23,74.28,951.54,1023.35,596,16.27,11.70,-87,1
1596939883,2020-08-09 04:24,73.73,951.57,1023.38,596,16.26,11.58,-87,1
1596939943,2020-08-09 04:25,74.21,951.58,1023.39,596,16.27,11.69,-88,1
1596940003,2020-08-09 04:26,73.62,951.56,1023.37,596,16.25,11.55,-87,1
1596940064,2020-08-09 04:27,73.92,951.59,1023.40,596,16.25,11.61,-85,1
1596940124,2020-08-09 04:28,73.77,951.55,1023.36,596,16.26,11.59,-87,1
1596940184,2020-08-09 04:29,73.04,951.55,1023.36,596,16.25,11.43,-86,1
1596940244,2020-08-09 04:30,73.05,951.54,1023.34,596,16.24,11.42,-87,1
1596940304,2020-08-09 04:31,73.72,951.54,1023.35,596,16.26,11.58,-86,1
1596940364,2020-08-09 04:32,73.52,951.52,1023.33,596,16.25,11.52,-87,1
1596940424,2020-08-09 04:33,73.59,951.56,1023.37,596,16.26,11.55,-87,1
1596940484,2020-08-09 04:34,73.13,951.57,1023.37,596,16.25,11.45,-87,1
1596940544,2020-08-09 04:35,72.94,951.55,1023.36,596,16.18,11.34,-86,1
1596940604,2020-08-09 04:36,73.34,951.55,1023.35,596,16.15,11.39,-87,1
1596940664,2020-08-09 04:37,73.51,951.58,1023.38,596,16.16,11.44,-88,1
1596940724,2020-08-09 04:38,73.54,951.57,1023.38,596,16.14,11.42,-87,1
1596940784,2020-08-09 04:39,73.79,951.58,1023.39,596,16.14,11.47,-86,1
1596940844,2020-08-09 04:40,73.89,951.57,1023.38,596,16.14,11.50,-87,1
1596940904,2020-08-09 04:41,73.80,951.62,1023.43,596,16.14,11.48,-87,1
1596940964,2020-08-09 04:42,73.36,951.58,1023.39,596,16.12,11.37,-88,1
1596941024,2020-08-09 04:43,73.69,951.58,1023.39,596,16.12,11.43,-88,1
1596941084,2020-08-09 04:44,73.30,951.57,1023.38,596,16.10,11.33,-87,1
1596941144,2020-08-09 04:45,73.79,951.57,1023.38,596,16.09,11.43,-88,1
1596941204,2020-08-09 04:46,73.22,951.55,1023.36,596,16.06,11.28,-87,1
1596941264,2020-08-09 04:47,73.39,951.57,1023.38,596,16.08,11.34,-88,1
1596941324,2020-08-09 04:48,73.53,951.56,1023.37,596,16.03,11.32,-87,1
1596941384,2020-08-09 04:49,73.56,951.54,1023.35,596,16.03,11.32,-88,1
1596941444,2020-08-09 04:50,73.89,951.57,1023.38,596,16.03,11.39,-87,1
1596941505,2020-08-09 04:51,73.27,951.59,1023.39,596,16.01,11.24,-86,1
1596941565,2020-08-09 04:52,73.53,951.60,1023.41,596,16.02,11.31,-87,1
1596941625,2020-08-09 04:53,73.70,951.59,1023.39,596,16.01,11.33,-87,1
1596941685,2020-08-09 04:54,73.09,951.59,1023.39,596,15.97,11.17,-87,1
1596941745,2020-08-09 04:55,74.05,951.64,1023.45,596,15.97,11.36,-87,1
1596941805,2020-08-09 04:56,74.08,951.62,1023.42,596,15.97,11.37,-85,1
1596941865,2020-08-09 04:57,74.57,951.63,1023.44,596,15.94,11.44,-88,1
1596941925,2020-08-09 04:58,74.71,951.65,1023.46,596,15.95,11.48,-88,1
1596941985,2020-08-09 04:59,74.35,951.67,1023.47,596,15.88,11.34,-86,1
1596942045,2020-08-09 05:00,74.20,951.64,1023.44,596,15.91,11.34,-88,1
1596942105,2020-08-09 05:01,74.24,951.65,1023.45,596,15.90,11.33,-86,1
1596942165,2020-08-09 05:02,74.24,951.63,1023.43,596,15.88,11.32,-87,1
1596942225,2020-08-09 05:03,74.15,951.61,1023.42,596,15.87,11.29,-87,1
1596942285,2020-08-09 05:04,74.26,951.61,1023.41,596,15.87,11.31,-87,1
1596942345,2020-08-09 05:05,74.88,951.58,1023.38,596,15.89,11.45,-87,1
1596942405,2020-08-09 05:06,74.40,951.59,1023.40,596,15.90,11.37,-86,1
1596942465,2020-08-09 05:07,73.91,951.60,1023.41,596,15.88,11.25,-86,1
1596942525,2020-08-09 05:08,74.43,951.62,1023.42,596,15.91,11.38,-87,1
1596942585,2020-08-09 05:09,74.19,951.60,1023.41,596,15.91,11.33,-86,1
1596942645,2020-08-09 05:10,74.29,951.64,1023.45,596,15.93,11.37,-87,1
1596942705,2020-08-09 05:11,74.27,951.68,1023.49,596,15.95,11.39,-87,1
1596942765,2020-08-09 05:12,74.03,951.67,1023.48,596,15.93,11.32,-87,1
1596942825,2020-08-09 05:13,73.83,951.68,1023.49,596,15.89,11.24,-87,1
1596942885,2020-08-09 05:14,74.60,951.71,1023.51,596,15.89,11.40,-87,1
1596942946,2020-08-09 05:15,74.57,951.69,1023.50,596,15.88,11.38,-87,1
1596943006,2020-08-09 05:16,74.60,951.71,1023.51,596,15.87,11.38,-86,1
1596943066,2020-08-09 05:17,74.84,951.71,1023.52,596,15.86,11.42,-88,1
1596943126,2020-08-09 05:18,74.51,951.71,1023.52,596,15.84,11.33,-85,1
1596943186,2020-08-09 05:19,73.90,951.69,1023.50,596,15.83,11.20,-87,1
1596943246,2020-08-09 05:20,74.28,951.70,1023.51,596,15.84,11.29,-86,1
1596943306,2020-08-09 05:21,74.97,951.69,1023.50,596,15.84,11.42,-87,1
1596943366,2020-08-09 05:22,74.75,951.71,1023.52,596,15.83,11.37,-87,1
1596943426,2020-08-09 05:23,74.28,951.70,1023.51,596,15.84,11.28,-88,1
1596943486,2020-08-09 05:24,74.68,951.74,1023.55,596,15.85,11.37,-87,1
1596943546,2020-08-09 05:25,74.65,951.74,1023.55,596,15.85,11.37,-87,1
1596943606,2020-08-09 05:26,74.61,951.78,1023.59,596,15.84,11.35,-86,1
1596943666,2020-08-09 05:27,74.26,951.76,1023.57,596,15.77,11.21,-87,1
1596943726,2020-08-09 05:28,73.89,951.77,1023.57,596,15.78,11.15,-87,1
1596943786,2020-08-09 05:29,74.43,951.78,1023.59,596,15.80,11.28,-87,1
1596943846,2020-08-09 05:30,74.20,951.76,1023.57,596,15.81,11.24,-88,1
1596943906,2020-08-09 05:31,74.18,951.76,1023.57,596,15.82,11.25,-85,1
1596943966,2020-08-09 05:32,74.09,951.79,1023.60,596,15.83,11.24,-87,1
1596944026,2020-08-09 05:33,73.91,951.74,1023.55,596,15.85,11.22,-88,1
1596944086,2020-08-09 05:34,74.02,951.73,1023.54,596,15.85,11.24,-88,1
1596944146,2020-08-09 05:35,74.40,951.74,1023.54,596,15.86,11.33,-87,1
1596944206,2020-08-09 05:36,73.92,951.75,1023.56,596,15.86,11.23,-86,1
1596944266,2020-08-09 05:37,74.15,951.72,1023.53,596,15.86,11.28,-87,1